Regional Weather Roundup
Issued by NWS

Home | Current Version | Previous Version | Text Only | Print | Product List | Glossary Off
Versions: 1 2 3 4 5 6 7 8 9 10 11 12 13 14 15 16 17 18 19 20 21 22 23 24 25 26 27 28 29 30 31 32 33 34 35 36 37 38 39 40 41 42 43 44 45 46 47 48 49 50

000
ASUS43 KMPX 020210
RWRMN
WEATHER ROUNDUP FOR MINNESOTA
NATIONAL WEATHER SERVICE TWIN CITIES/CHANHASSEN MN
900 PM CDT WED APR 01 2015


NOTE: "FAIR" INDICATES FEW OR NO CLOUDS BELOW 12,000 FEET WITH NO
SIGNIFICANT WEATHER AND/OR OBSTRUCTIONS TO VISIBILITY. N/A MEANS
CURRENT SKY AND/OR WEATHER CONDITIONS ARE NOT AVAILABLE.

MNZ060>063-068>070-020300-
   Twin Cities Metro

CITY           SKY/WX    TMP DP  RH WIND       PRES   REMARKS
TWIN CITIES    TSTM      64  55  72 SW12      29.54R
ST PAUL        TSTM      62  55  77 W7        29.55R
CRYSTAL        LGT RAIN  64  53  67 W6        29.51R
BLAINE         CLOUDY    64  55  72 SW12      29.53
LAKEVILLE      TSTM      63  54  72 W22G30    29.58R
EDEN PRAIRIE   RAIN      62  54  74 W10       29.54R
SOUTH ST PAUL  TSTM      65  54  67 W7        29.55R
LAKE ELMO      TSTM      61  54  77 W9G16     29.56R
$$
MNZ001>005-007-008-013>017-022>024-027-028-020300-
   Northwest Minnesota

CITY           SKY/WX    TMP DP  RH WIND       PRES   REMARKS
BEMIDJI        PTCLDY    52  42  68 W17       29.47R
HALLOCK        MOCLDY    50  39  66 W21G29    29.52R
ROSEAU         MOCLDY    54  41  62 W10G17    29.46R
WARROAD        FAIR      50  41  71 W13       29.44R
THIEF RVR FALL CLOUDY    54  43  66 NW23G31   29.52R
CROOKSTON      CLOUDY    52  39  62 NW24G38   29.56R
FOSSTON        MOCLDY    50  39  66 W17G23    29.53R
DETROIT LAKES  CLEAR     54  37  54 NW17G24   29.55R
MOORHEAD       PTCLDY    57  37  47 NW21      29.58R
PARK RAPIDS    PTCLDY    57  42  57 NW18G29   29.48R
MAHNOMEN       FAIR      51  39  63 W25       29.55R
$$
MNZ006-009>011-018-025>026-020300-
   North Central Minnesota

CITY           SKY/WX    TMP DP  RH WIND       PRES   REMARKS
BAUDETTE       PTCLDY    53  40  61 W20G26    29.41R
FLAG ISLAND    PTCLDY    52  37  58 W18       29.38R
INTL FALLS     PTCLDY    51  35  54 S3        29.36R
WASKISH        CLEAR     43  37  81 W12       29.44R
BIG FORK       MOCLDY    59  39  47 W12G24    29.42R
LONGVILLE      PTCLDY    59  39  47 W13G24    29.45R
GRAND RAPIDS   MOCLDY    61  37  41 W14G24    29.43R
CRANE LAKE     PTCLDY    45  34  65 SE1       29.40S
ORR            PTCLDY    48  34  57 SE7       29.36S
COOK           PTCLDY    50  37  62 SE10      29.40R
WALKER         FAIR      55  42  60 W14G26    29.46R
$$
MNZ012-019>021-037-020300-
   Northeast Minnesota

CITY           SKY/WX    TMP DP  RH WIND       PRES   REMARKS
DULUTH         MOCLDY    37  32  82 SE7       29.44F
ELY            MOCLDY    39  30  70 SE5       29.43S
EVELETH        PTCLDY    43  32  65 NW6       29.45R
DULUTH HARBOR  MOCLDY    36  34  93 NE8       29.47F
TWO HARBORS    CLOUDY    39  34  81 N3        29.42F
SILVER BAY     MOCLDY    37  32  81 N3        29.44F
GRAND MARAIS     N/A     42  33  70 NE10      29.48F
G MARAIS ARPRT MOCLDY    36  28  75 N6        29.48F
$$
MNZ029>031-032-039>041-046>048-054>057-064-020300-
   West Central Minnesota

CITY           SKY/WX    TMP DP  RH WIND       PRES   REMARKS
FERGUS FALLS   CLEAR     52  34  50 NW12      29.55R
WHEATON        CLEAR     54  32  43 W18       29.57R
MORRIS         CLEAR     55  39  54 NW14      29.55R
ALEXANDRIA     CLEAR     56  40  55 NW14      29.54R
ELBOW LAKE     FAIR      54  37  53 NW14      29.54R
WADENA         PTCLDY    54  39  58 NW17G25   29.51R
GLENWOOD       CLEAR     55  43  62 NW15      29.53R
APPLETON       CLEAR     57  36  44 NW17G23   29.57R
BENSON         CLEAR     55  39  54 N12       29.55R
ORTONVILLE     CLEAR     57  34  41 NW10      29.58R
MADISON        CLEAR     57  36  44 NW13      29.58R
WILLMAR        FAIR      57  41  54 SW9       29.58R
$$
MNZ033>034-036-042>043-049>051-058-059-020300-
   Central Minnesota

CITY           SKY/WX    TMP DP  RH WIND       PRES   REMARKS
ST CLOUD       CLOUDY    61  41  47 W9        29.50R
SAUK CENTRE    FAIR      58  42  54 NW20      29.50R
PAYNESVILLE    PTCLDY    54  40  59 CALM      29.53R
AITKIN         MOCLDY    63  37  39 W6        29.45R
PINE RIVER     PTCLDY    57  41  54 W12G20    29.51R
BRAINERD       MOCLDY    59  38  45 NW14G21   29.48R
STAPLES        PTCLDY    55  41  58 NW18G26   29.50R
LONG PRAIRIE   FAIR      55  41  58 W14       29.51R
LITTLE FALLS   PTCLDY    59  37  44 NW12G21   29.50R
LITCHFIELD     CLOUDY    57  45  62 CALM      29.55R
BUFFALO        CLOUDY    57  48  72 W3        29.50R
MAPLE LAKE     CLOUDY    58  50  74 W6        29.51S
$$
MNZ037-044-045-052-053-020300-
   East Central Minnesota

CITY           SKY/WX    TMP DP  RH WIND       PRES   REMARKS
PRINCETON      CLOUDY    63  52  67 SW8       29.50R
MORA           MOCLDY    57  50  77 SW8       29.50R
CAMBRIDGE      CLOUDY    63  52  67 S8        29.46R
RUSH CITY      TSTM      58  53  82 S10       29.49R
MOOSE LAKE     CLOUDY    61  48  63 S9        29.43R
HINCKLEY       FAIR      59  52  77 S13       29.46R
CLOQUET        CLOUDY    37  34  87 CALM      29.45R
MCGREGOR       CLOUDY    63  39  42 SW5       29.45R
$$
MNZ071>073-080-081-089-090-097-098-020300-
   Southwest Minnesota

CITY           SKY/WX    TMP DP  RH WIND       PRES   REMARKS
MONTEVIDEO     PTCLDY    61  39  44 N10G20    29.58R
GRANITE FALLS  MOCLDY    60  42  51 W5        29.61R
CANBY          PTCLDY    58  35  42 NW15      29.59R
MARSHALL       MOCLDY    61  37  41 NW9       29.62R
REDWOOD FALLS  CLOUDY    59  46  62 W9        29.58R
OLIVIA         MOCLDY    52  45  76 W7        29.57R
PIPESTONE      CLOUDY    61  39  44 N8        29.62R
WINDOM         LGT RAIN  55  48  76 NW15      29.58R
WORTHINGTON    CLOUDY    55  45  67 N14       29.60R
JACKSON        LGT RAIN  61  46  59 NW9       29.61R
TRACY          CLOUDY    62  42  47 NW10      29.62R
SLAYTON        CLOUDY    58  40  50 N16G24    29.60R
$$
MNZ065>067-074>077-082>085-091>093-020300-
   South Central Minnesota

CITY           SKY/WX    TMP DP  RH WIND       PRES   REMARKS
MANKATO        CLOUDY    61  46  59 N14       29.54R THUNDER
NEW ULM        TSTM      57  48  72 W21G28    29.55R
ST JAMES       TSTM      57  48  72 W14       29.61R
FAIRMONT       CLOUDY    63  48  59 W18G41    29.61R
GLENCOE        CLOUDY    59  52  78 W3        29.51S
FARIBAULT      CLOUDY    70  43  37 W17G24    29.54R
OWATONNA       MOCLDY    70  39  32 S20G30    29.50S
WASECA         CLOUDY    70  43  37 S21       29.51R
ALBERT LEA     MOCLDY    70  43  37 S18G28    29.53R
$$
MNZ078>079-086>088-094>096-020300-
   Southeast Minnesota

CITY           SKY/WX    TMP DP  RH WIND       PRES   REMARKS
ROCHESTER      PTCLDY    63  41  44 S22G31    29.56S
RED WING       MOCLDY    72  36  26 S17G36    29.49S
STANTON        CLOUDY    68  41  37 S18G28    29.47R
DODGE CENTER   MOCLDY    63  45  51 S23       29.54S
WINONA         CLEAR     70  36  28 S15G23    29.57R
AUSTIN         PTCLDY    64  41  42 S22G28    29.55F
PRESTON        CLEAR     64  37  37 S21G30    29.59S
$$
ABBREVIATIONS USED IN REMARKS
   TC - TEMPERATURES IN CELSIUS
  WCI - WIND CHILL INDEX
   HX - HEAT INDEX
  VSB - VISIBILITY
$$


USA.gov is the U.S. government's official web portal to all federal, state and local government web resources and services.